Time,TemperatureF,DewpointF,PressureIn,WindDirection,WindDirectionDegrees,WindSpeedMPH,WindSpeedGustMPH,Humidity,HourlyPrecipIn,Conditions,Clouds,dailyrainin,SoftwareType,DateUTC
2013-04-19 15:02:00,37.0,29.0,29.74,SSW,194,3.0,13.0,74,0.00,,,0.00,,2013-04-19 20:02:00,
2013-04-19 15:11:00,37.0,29.0,29.74,SSW,194,3.0,13.0,74,0.00,,,0.00,,2013-04-19 20:11:00,
2013-04-19 15:22:00,38.0,30.0,29.74,NE,42,3.0,18.0,74,0.00,,,0.00,,2013-04-19 20:22:00,
2013-04-19 15:32:00,38.0,31.0,29.74,ESE,113,6.0,12.0,75,0.00,,,0.00,,2013-04-19 20:32:00,
2013-04-19 15:42:00,38.0,31.0,29.74,ESE,113,6.0,12.0,75,0.00,,,0.00,,2013-04-19 20:42:00,
2013-04-19 15:52:00,38.0,30.0,29.75,SSW,212,4.0,17.0,74,0.00,,,0.00,,2013-04-19 20:52:00,
2013-04-19 16:01:00,38.0,31.0,29.75,West,265,5.0,12.0,75,0.00,,,0.00,,2013-04-19 21:01:00,
2013-04-19 16:11:00,38.0,31.0,29.75,WSW,246,5.0,19.0,75,0.00,,,0.00,,2013-04-19 21:11:00,
2013-04-19 16:21:00,38.0,31.0,29.75,WSW,246,5.0,19.0,75,0.00,,,0.00,,2013-04-19 21:21:00,
2013-04-19 16:32:00,38.0,31.0,29.77,WSW,258,5.0,19.0,75,0.00,,,0.00,,2013-04-19 21:32:00,
2013-04-19 16:42:00,38.0,31.0,29.77,WSW,258,5.0,19.0,75,0.00,,,0.00,,2013-04-19 21:42:00,
2013-04-19 16:53:00,38.0,31.0,29.77,NW,304,3.0,12.0,76,0.00,,,0.00,,2013-04-19 21:53:00,
2013-04-19 17:02:00,38.0,31.0,29.78,NNW,344,2.0,13.0,75,0.00,,,0.00,,2013-04-19 22:02:00,
2013-04-19 17:12:00,38.0,31.0,29.78,NNW,344,2.0,13.0,75,0.00,,,0.00,,2013-04-19 22:12:00,
2013-04-19 17:22:00,38.0,30.0,29.79,SE,146,3.0,15.0,74,0.00,,,0.00,,2013-04-19 22:22:00,
2013-04-19 17:33:00,38.0,31.0,29.79,WNW,285,4.0,15.0,76,0.00,,,0.00,,2013-04-19 22:33:00,
2013-04-19 17:42:00,38.0,31.0,29.79,WNW,285,4.0,15.0,76,0.00,,,0.00,,2013-04-19 22:42:00,
2013-04-19 17:52:00,38.0,31.0,29.80,WSW,254,3.0,10.0,77,0.00,,,0.00,,2013-04-19 22:52:00,
2013-04-19 18:02:00,38.0,30.0,29.81,WSW,253,4.0,11.0,74,0.00,,,0.00,,2013-04-19 23:02:00,
2013-04-19 18:11:00,38.0,30.0,29.81,WSW,253,4.0,11.0,74,0.00,,,0.00,,2013-04-19 23:11:00,
2013-04-19 18:22:00,38.0,31.0,29.82,SSE,167,3.0,13.0,75,0.00,,,0.00,,2013-04-19 23:22:00,
2013-04-19 18:32:00,38.0,30.0,29.82,SW,225,6.0,15.0,74,0.00,,,0.00,,2013-04-19 23:32:00,
2013-04-19 18:42:00,38.0,30.0,29.82,SW,225,6.0,15.0,74,0.00,,,0.00,,2013-04-19 23:42:00,
2013-04-19 18:52:00,38.0,31.0,29.83,West,265,3.0,11.0,76,0.00,,,0.00,,2013-04-19 23:52:00,
2013-04-19 19:02:00,38.0,31.0,29.84,WNW,296,3.0,11.0,76,0.00,,,0.00,,2013-04-20 00:02:00,
2013-04-19 19:12:00,38.0,31.0,29.84,WNW,296,3.0,11.0,76,0.00,,,0.00,,2013-04-20 00:12:00,
2013-04-19 19:21:00,38.0,30.0,29.85,WSW,239,2.0,10.0,74,0.00,,,0.00,,2013-04-20 00:21:00,
2013-04-19 19:32:00,38.0,31.0,29.85,NE,49,4.0,14.0,75,0.00,,,0.00,,2013-04-20 00:32:00,
2013-04-19 19:41:00,38.0,31.0,29.85,NE,49,4.0,14.0,75,0.00,,,0.00,,2013-04-20 00:41:00,
2013-04-19 19:52:00,38.0,31.0,29.87,SW,221,3.0,12.0,76,0.00,,,0.00,,2013-04-20 00:52:00,
2013-04-19 20:01:00,37.0,31.0,29.88,North,355,3.0,11.0,79,0.00,,,0.00,,2013-04-20 01:01:00,
2013-04-19 20:11:00,37.0,31.0,29.88,North,355,3.0,11.0,79,0.00,,,0.00,,2013-04-20 01:11:00,
2013-04-19 20:21:00,36.0,31.0,29.89,NNE,19,5.0,15.0,83,0.00,,,0.00,,2013-04-20 01:21:00,
2013-04-19 20:32:00,36.0,31.0,29.89,WNW,284,1.0,9.0,83,0.00,,,0.00,,2013-04-20 01:32:00,
2013-04-19 20:42:00,36.0,31.0,29.89,WNW,284,1.0,9.0,83,0.00,,,0.00,,2013-04-20 01:42:00,
2013-04-19 20:52:00,36.0,31.0,29.90,North,355,4.0,11.0,83,0.00,,,0.00,,2013-04-20 01:52:00,
2013-04-19 21:01:00,36.0,30.0,29.91,NW,311,5.0,14.0,80,0.00,,,0.00,,2013-04-20 02:01:00,
2013-04-19 21:11:00,36.0,30.0,29.91,NW,311,5.0,14.0,80,0.00,,,0.00,,2013-04-20 02:11:00,
2013-04-19 21:21:00,36.0,30.0,29.92,NNW,340,4.0,11.0,79,0.00,,,0.00,,2013-04-20 02:21:00,
2013-04-19 21:32:00,36.0,29.0,29.93,West,270,5.0,14.0,77,0.00,,,0.00,,2013-04-20 02:32:00,
2013-04-19 21:42:00,36.0,29.0,29.93,West,270,5.0,14.0,77,0.00,,,0.00,,2013-04-20 02:42:00,
2013-04-19 21:52:00,36.0,29.0,29.93,SE,138,3.0,11.0,75,0.00,,,0.00,,2013-04-20 02:52:00,
2013-04-19 22:01:00,36.0,29.0,29.94,NW,313,3.0,10.0,75,0.00,,,0.00,,2013-04-20 03:01:00,
2013-04-19 22:11:00,36.0,29.0,29.94,NW,313,3.0,10.0,75,0.00,,,0.00,,2013-04-20 03:11:00,
2013-04-19 22:21:00,36.0,29.0,29.95,NNW,336,3.0,9.0,76,0.00,,,0.00,,2013-04-20 03:21:00,
2013-04-19 22:33:00,36.0,29.0,29.95,NW,315,4.0,9.0,75,0.00,,,0.00,,2013-04-20 03:33:00,
2013-04-19 22:43:00,36.0,29.0,29.95,NW,315,4.0,9.0,75,0.00,,,0.00,,2013-04-20 03:43:00,
2013-04-19 22:53:00,36.0,29.0,29.96,NW,306,2.0,6.0,77,0.00,,,0.00,,2013-04-20 03:53:00,
2013-04-19 23:03:00,35.0,28.0,29.96,West,273,3.0,10.0,76,0.00,,,0.00,,2013-04-20 04:03:00,
2013-04-19 23:12:00,35.0,28.0,29.96,West,273,3.0,10.0,76,0.00,,,0.00,,2013-04-20 04:12:00,
2013-04-19 23:23:00,35.0,29.0,29.97,WNW,296,2.0,9.0,77,0.00,,,0.00,,2013-04-20 04:23:00,
2013-04-19 23:32:00,35.0,29.0,29.97,West,268,1.0,8.0,78,0.00,,,0.00,,2013-04-20 04:32:00,
2013-04-19 23:42:00,35.0,29.0,29.97,West,268,1.0,8.0,78,0.00,,,0.00,,2013-04-20 04:42:00,
2013-04-19 23:52:00,35.0,29.0,29.98,SW,224,2.0,8.0,78,0.00,,,0.00,,2013-04-20 04:52:00,